DW0946 Weather Reports


time (UTC)temp
F
wind
direction
speed
knots
gust
knots
rain 1hr
in
rain 24hr
in
rain mn
in
humidity
%
barometer
mb
20260502163041 47 260 1.7 5.2 0.00 0.09 0.00 60 1016.7
20260502161554 48 281 1.7 6.1 0.00 0.09 0.00 57 1016.7
20260502151529 48 264 0.9 5.2 0.00 0.09 0.00 53 1016.5
20260502123126 39 248 0.0 1.7 0.00 0.10 0.00 91 1016.4
20260502121604 37 243 0.0 0.0 0.00 0.10 0.00 92 1016.4
20260502120131 37 245 0.0 2.6 0.00 0.10 0.00 93 1016.6
20260502114558 37 252 0.0 0.9 0.00 0.10 0.00 93 1016.5
20260502113056 36 309 0.0 0.0 0.00 0.10 0.00 94 1016.6
20260502111556 32 309 0.0 0.0 0.00 0.10 0.00 94 1016.4
20260502110055 31 309 0.0 0.0 0.00 0.10 0.00 94 1016.4
20260502104556 31 309 0.0 0.0 0.00 0.10 0.00 94 1016.3
20260502103054 31 309 0.0 0.0 0.00 0.10 0.00 94 1016.3
20260502101559 31 309 0.0 0.0 0.00 0.10 0.00 94 1016.1
20260502071533 37 309 0.0 0.0 0.00 0.10 0.00 93 1015.8
20260502070032 38 309 0.0 0.0 0.00 0.10 0.00 93 1016.0
20260502064535 37 309 0.0 0.0 0.00 0.10 0.00 93 1016.2
20260502063034 37 309 0.0 0.0 0.00 0.10 0.00 93 1016.3
20260502061528 37 309 0.0 0.0 0.00 0.10 0.00 93 1016.4
20260502060027 36 309 0.0 0.0 0.00 0.00 0.00 93 1016.4
20260502054525 36 309 0.0 0.0 0.00 0.10 0.00 93 1016.5
20260502053023 36 309 0.0 0.0 0.00 0.10 0.00 93 1016.5
20260502051523 37 309 0.0 0.0 0.00 0.10 0.00 92 1016.5
20260502050032 37 309 0.0 0.0 0.00 0.10 0.00 92 1016.7
20260502044515 38 309 0.0 0.0 0.00 0.10 0.00 91 1016.7
20260502043010 39 309 0.0 0.0 0.00 0.10 0.00 91 1016.7
20260502041508 40 309 0.0 0.0 0.00 0.10 0.00 92 1016.8
20260502040005 40 309 0.0 0.0 0.00 0.10 0.00 91 1016.8
20260502034510 40 309 0.0 0.0 0.00 0.10 0.10 91 1016.9
20260502033006 40 309 0.0 0.0 0.00 0.10 0.10 91 1016.8
20260502031503 40 309 0.0 0.0 0.00 0.10 0.10 91 1016.7
20260502030005 40 309 0.0 0.0 0.00 0.10 0.10 91 1016.7
20260502024501 40 309 0.0 0.0 0.00 0.10 0.10 91 1016.5
20260502023059 40 309 0.0 0.0 0.00 0.10 0.10 91 1016.5
20260502021605 40 309 0.0 0.0 0.00 0.10 0.10 90 1016.3
20260502020058 40 309 0.0 0.0 0.00 0.00 0.10 90 1016.4
20260502014557 40 309 0.0 0.0 0.00 0.10 0.10 90 1016.3
20260502013053 40 309 0.0 0.0 0.00 0.10 0.10 89 1015.9
20260502011552 40 309 0.0 0.0 0.00 0.10 0.10 88 1015.5
20260502010058 41 309 0.0 0.0 0.00 0.10 0.10 87 1015.3
20260502004600 42 309 0.0 1.7 0.00 0.10 0.10 87 1015.4
20260502003050 42 278 0.0 0.0 0.00 0.10 0.10 85 1015.5
20260502001547 43 316 0.0 1.7 0.00 0.10 0.10 83 1015.2
20260502000045 44 285 0.0 7.0 0.00 0.10 0.10 82 1014.9
20260501234544 44 287 0.0 1.7 0.00 0.10 0.10 83 1014.5
20260501233048 45 259 0.0 2.6 0.00 0.10 0.10 83 1014.2
20260501231544 45 281 0.0 3.5 0.00 0.10 0.10 83 1014.3
20260501230046 45 321 0.0 7.0 0.00 0.10 0.10 87 1014.2
20260501224548 44 304 1.7 4.3 0.00 0.10 0.10 89 1014.1
20260501223042 44 264 0.9 4.3 0.00 0.10 0.10 93 1013.9
20260501221543 44 302 0.0 7.0 0.00 0.10 0.10 93 1014.0
20260501220048 44 300 0.9 9.6 0.00 0.10 0.10 93 1014.0
20260501214541 44 276 1.7 7.8 0.00 0.10 0.10 92 1013.4
20260501213048 45 257 0.0 9.6 0.00 0.10 0.10 92 1013.1
20260501211539 46 285 1.7 4.3 0.00 0.10 0.10 92 1012.6
20260501210043 47 308 0.0 6.1 0.00 0.10 0.10 93 1012.2
20260501204538 47 273 2.6 7.8 0.04 0.10 0.10 92 1012.0
20260501203037 50 290 0.0 8.7 0.04 0.10 0.10 93 1011.8
20260501201535 50 225 0.0 1.7 0.04 0.10 0.10 93 1011.5
20260501200034 49 190 0.0 7.0 0.04 0.10 0.10 85 1011.7
20260501194538 52 290 0.0 7.8 0.00 0.06 0.06 83 1011.4
20260501193033 51 155 1.7 6.1 0.00 0.06 0.06 86 1011.4
20260501191531 48 166 0.9 3.5 0.00 0.06 0.06 87 1011.7
20260501190028 49 211 1.7 5.2 0.00 0.06 0.06 87 1011.6
20260501184528 48 219 0.9 4.3 0.01 0.06 0.06 88 1011.6
20260501183027 48 172 0.0 4.3 0.01 0.06 0.06 88 1011.7
20260501181526 48 236 0.0 3.5 0.01 0.06 0.06 88 1011.7
20260501180037 48 170 0.0 0.0 0.01 0.06 0.06 89 1011.5
20260501174529 48 156 0.0 0.9 0.01 0.05 0.05 89 1011.6
20260501173023 48 125 0.9 1.7 0.02 0.05 0.05 89 1011.3
20260501171522 47 228 0.0 4.3 0.03 0.05 0.05 88 1011.8